Location: Unspecified
(0.0000°N, 0.0000°E)
Time: 06:07:02
(UTC+00:00)

Vanguard 2 Rocket - Pass Details

Date: 10 October 2023
Orbit: 552 x 3312 km, 32.9° (Epoch: 06 December)

Event Time Altitude Azimuth Distance (km) Brightness Sun altitude
Rises 08:10:25 0° 308° (NW) 4,597 10.1 35.6°
Reaches altitude 10° 08:16:18 10° 337° (NNW) 4,269 10.2 37.0°
Maximum altitude 08:20:36 12° 358° (N) 4,511 10.5 38.1°
Drops below altitude 10° 08:25:40 10° 19° (NNE) 5,162 11.0 39.3°
Sets 08:35:14 0° 45° (NE) 6,843 11.7 41.7°
